When you browse on this site, cookies collect data to enhance your experience and personalize the content and advertising you see.
Visit our Privacy Policy to learn more. By continuing to use the site, you agree to this use of cookies and data.
  • en France
  • Liste des pays
  • À 7 jours
  • Température de l'eau
  • Carte satellitaire
  • Carte météo
  • Widgets météo
  • user-avatar
    Se connecter

    Météo par heure à Dhâkâ

    Ce jour, 24 Janvier, Jeudi

    Heure Température Précipitation Vent Pression Humidité
    00:00 +23°C° 0 mm 1 m/s 760 mmHg 48%
    01:00 +22°C° 0 mm 1 m/s 760 mmHg 50%
    02:00 +22°C° 0 mm 1 m/s 760 mmHg 52%
    03:00 +20°C° 0 mm 2 m/s 760 mmHg 53%
    04:00 +20°C° 0 mm 2 m/s 760 mmHg 55%
    05:00 +20°C° 0 mm 2 m/s 760 mmHg 56%
    06:00 +19°C° 0 mm 2 m/s 760 mmHg 58%
    07:00 +20°C° 0 mm 2 m/s 761 mmHg 54%
    08:00 +23°C° 0 mm 2 m/s 761 mmHg 51%
    09:00 +24°C° 0 mm 2 m/s 762 mmHg 47%
    10:00 +26°C° 0 mm 2 m/s 762 mmHg 43%
    11:00 +27°C° 0 mm 2 m/s 762 mmHg 39%
    12:00 +29°C° 0 mm 2 m/s 761 mmHg 34%
    13:00 +30°C° 0 mm 2 m/s 761 mmHg 33%
    14:00 +31°C° 0 mm 2 m/s 760 mmHg 31%
    15:00 +31°C° 0 mm 2 m/s 759 mmHg 30%
    16:00 +30°C° 0 mm 2 m/s 759 mmHg 33%
    17:00 +28°C° 0 mm 2 m/s 759 mmHg 36%
    18:00 +27°C° 0 mm 2 m/s 759 mmHg 39%
    19:00 +26°C° 0 mm 2 m/s 760 mmHg 41%
    20:00 +26°C° 0 mm 2 m/s 760 mmHg 43%
    21:00 +25°C° 0 mm 2 m/s 760 mmHg 45%
    22:00 +24°C° 0 mm 2 m/s 760 mmHg 46%
    23:00 +24°C° 0 mm 1 m/s 760 mmHg 47%

    Demain, 25 Janvier, Vendredi

    Heure Température Précipitation Vent Pression Humidité
    00:00 +24°C° 0 mm 1 m/s 760 mmHg 48%
    01:00 +23°C° 0 mm 2 m/s 760 mmHg 49%
    02:00 +23°C° 0 mm 2 m/s 760 mmHg 51%
    03:00 +21°C° 0 mm 2 m/s 760 mmHg 53%
    04:00 +21°C° 0 mm 2 m/s 760 mmHg 55%
    05:00 +20°C° 0 mm 2 m/s 760 mmHg 58%
    06:00 +20°C° 0 mm 2 m/s 760 mmHg 60%
    07:00 +21°C° 0 mm 2 m/s 760 mmHg 56%
    08:00 +23°C° 0 mm 2 m/s 761 mmHg 52%
    09:00 +25°C° 0 mm 2 m/s 762 mmHg 48%
    10:00 +27°C° 0 mm 2 m/s 762 mmHg 43%
    11:00 +28°C° 0 mm 3 m/s 761 mmHg 38%
    12:00 +30°C° 0 mm 3 m/s 761 mmHg 33%
    13:00 +31°C° 0 mm 3 m/s 760 mmHg 32%
    14:00 +31°C° 0 mm 3 m/s 760 mmHg 31%
    15:00 +31°C° 0 mm 3 m/s 759 mmHg 30%
    16:00 +30°C° 0 mm 3 m/s 759 mmHg 32%
    17:00 +29°C° 0 mm 3 m/s 759 mmHg 35%
    18:00 +27°C° 0 mm 2 m/s 759 mmHg 37%
    19:00 +26°C° 0 mm 2 m/s 759 mmHg 39%
    20:00 +26°C° 0 mm 2 m/s 760 mmHg 40%
    21:00 +25°C° 0 mm 2 m/s 760 mmHg 42%
    22:00 +24°C° 0 mm 2 m/s 760 mmHg 43%
    23:00 +24°C° 0 mm 2 m/s 760 mmHg 44%

    Après-demain, 26 Janvier, Samedi

    Heure Température Précipitation Vent Pression Humidité
    00:00 +23°C° 0 mm 2 m/s 760 mmHg 45%
    01:00 +23°C° 0 mm 2 m/s 760 mmHg 47%
    02:00 +21°C° 0 mm 2 m/s 760 mmHg 49%
    03:00 +21°C° 0 mm 2 m/s 759 mmHg 51%
    04:00 +20°C° 0 mm 2 m/s 759 mmHg 53%
    05:00 +20°C° 0 mm 2 m/s 759 mmHg 54%
    06:00 +20°C° 0 mm 2 m/s 759 mmHg 56%
    07:00 +21°C° 0 mm 2 m/s 760 mmHg 52%
    08:00 +23°C° 0 mm 2 m/s 761 mmHg 48%
    09:00 +25°C° 0 mm 2 m/s 762 mmHg 44%
    10:00 +27°C° 0 mm 2 m/s 762 mmHg 39%
    11:00 +28°C° 0 mm 2 m/s 761 mmHg 34%
    12:00 +30°C° 0 mm 2 m/s 761 mmHg 29%
    13:00 +31°C° 0 mm 2 m/s 760 mmHg 28%
    14:00 +31°C° 0 mm 2 m/s 760 mmHg 27%
    15:00 +33°C° 0 mm 3 m/s 759 mmHg 26%
    16:00 +30°C° 0 mm 3 m/s 759 mmHg 29%
    17:00 +29°C° 0 mm 3 m/s 759 mmHg 33%
    18:00 +27°C° 0 mm 3 m/s 759 mmHg 37%
    19:00 +27°C° 0 mm 3 m/s 760 mmHg 39%
    20:00 +26°C° 0 mm 3 m/s 761 mmHg 42%
    21:00 +26°C° 0 mm 3 m/s 761 mmHg 44%
    22:00 +25°C° 0 mm 3 m/s 761 mmHg 45%
    23:00 +24°C° 0 mm 3 m/s 761 mmHg 47%

    27 Janvier, Dimanche

    Heure Température Précipitation Vent Pression Humidité
    00:00 +23°C° 0 mm 2 m/s 761 mmHg 48%
    01:00 +23°C° 0 mm 2 m/s 761 mmHg 48%
    02:00 +23°C° 0 mm 2 m/s 760 mmHg 47%
    03:00 +21°C° 0 mm 2 m/s 760 mmHg 47%
    04:00 +21°C° 0 mm 2 m/s 760 mmHg 48%
    05:00 +20°C° 0 mm 2 m/s 761 mmHg 49%
    06:00 +20°C° 0 mm 2 m/s 761 mmHg 50%
    07:00 +21°C° 0 mm 2 m/s 762 mmHg 47%
    08:00 +24°C° 0 mm 3 m/s 762 mmHg 44%
    09:00 +25°C° 0 mm 3 m/s 763 mmHg 42%
    10:00 +27°C° 0 mm 3 m/s 763 mmHg 37%
    11:00 +28°C° 0 mm 3 m/s 762 mmHg 33%
    12:00 +30°C° 0 mm 3 m/s 762 mmHg 28%
    13:00 +30°C° 0 mm 3 m/s 761 mmHg 27%
    14:00 +31°C° 0 mm 3 m/s 760 mmHg 25%
    15:00 +31°C° 0 mm 2 m/s 759 mmHg 24%
    16:00 +30°C° 0 mm 2 m/s 759 mmHg 26%
    17:00 +29°C° 0 mm 2 m/s 759 mmHg 29%
    18:00 +28°C° 0 mm 2 m/s 760 mmHg 31%
    19:00 +27°C° 0 mm 2 m/s 760 mmHg 34%
    20:00 +26°C° 0 mm 2 m/s 760 mmHg 36%
    21:00 +25°C° 0 mm 2 m/s 761 mmHg 38%
    22:00 +25°C° 0 mm 2 m/s 761 mmHg 39%
    23:00 +25°C° 0 mm 3 m/s 761 mmHg 40%

    28 Janvier, Lundi

    Heure Température Précipitation Vent Pression Humidité
    00:00 +25°C° 0 mm 3 m/s 761 mmHg 41%
    01:00 +25°C° 0 mm 4 m/s 760 mmHg 41%
    02:00 +25°C° 0 mm 4 m/s 760 mmHg 41%
    03:00 +23°C° 0 mm 5 m/s 760 mmHg 41%
    04:00 +23°C° 0 mm 4 m/s 760 mmHg 43%
    05:00 +22°C° 0 mm 4 m/s 760 mmHg 45%
    06:00 +22°C° 0 mm 3 m/s 761 mmHg 48%
    07:00 +23°C° 0 mm 4 m/s 761 mmHg 47%
    08:00 +23°C° 0 mm 4 m/s 762 mmHg 46%
    09:00 +25°C° 0 mm 4 m/s 763 mmHg 45%
    10:00 +26°C° 0 mm 4 m/s 762 mmHg 41%
    11:00 +28°C° 0 mm 4 m/s 762 mmHg 37%
    12:00 +29°C° 0 mm 4 m/s 762 mmHg 33%
    13:00 +29°C° 0 mm 4 m/s 761 mmHg 32%
    14:00 +29°C° 0 mm 4 m/s 760 mmHg 32%
    15:00 +29°C° 0 mm 4 m/s 759 mmHg 31%
    16:00 +28°C° 0 mm 4 m/s 759 mmHg 33%
    17:00 +27°C° 0 mm 3 m/s 759 mmHg 35%
    18:00 +26°C° 0 mm 3 m/s 759 mmHg 36%
    19:00 +25°C° 0 mm 3 m/s 760 mmHg 38%
    20:00 +24°C° 0 mm 3 m/s 760 mmHg 39%
    21:00 +24°C° 0 mm 3 m/s 761 mmHg 41%
    22:00 +22°C° 0 mm 3 m/s 761 mmHg 42%
    23:00 +22°C° 0 mm 3 m/s 760 mmHg 43%

    29 Janvier, Mardi

    Heure Température Précipitation Vent Pression Humidité
    00:00 +21°C° 0 mm 4 m/s 760 mmHg 45%
    01:00 +21°C° 0 mm 4 m/s 760 mmHg 47%
    02:00 +20°C° 0 mm 4 m/s 760 mmHg 50%
    03:00 +20°C° 0 mm 4 m/s 760 mmHg 53%
    04:00 +20°C° 0 mm 4 m/s 760 mmHg 55%
    05:00 +19°C° 0 mm 4 m/s 760 mmHg 56%
    06:00 +19°C° 0 mm 4 m/s 760 mmHg 58%
    07:00 +20°C° 0 mm 4 m/s 761 mmHg 54%
    08:00 +21°C° 0 mm 4 m/s 762 mmHg 51%
    09:00 +22°C° 0 mm 5 m/s 762 mmHg 47%
    10:00 +25°C° 0 mm 5 m/s 762 mmHg 42%
    11:00 +27°C° 0 mm 4 m/s 762 mmHg 37%
    12:00 +28°C° 0 mm 4 m/s 761 mmHg 33%
    13:00 +28°C° 0 mm 4 m/s 760 mmHg 31%
    14:00 +28°C° 0 mm 4 m/s 760 mmHg 30%
    15:00 +29°C° 0 mm 4 m/s 759 mmHg 29%
    16:00 +27°C° 0 mm 4 m/s 759 mmHg 32%
    17:00 +25°C° 0 mm 4 m/s 759 mmHg 35%
    18:00 +23°C° 0 mm 4 m/s 759 mmHg 39%
    19:00 +22°C° 0 mm 4 m/s 759 mmHg 39%
    20:00 +22°C° 0 mm 3 m/s 760 mmHg 40%
    21:00 +21°C° 0 mm 3 m/s 760 mmHg 41%
    22:00 +21°C° 0 mm 3 m/s 761 mmHg 41%
    23:00 +20°C° 0 mm 4 m/s 761 mmHg 42%
    Voir plus